Flag for Australia Weather past 2 weeks in Melbourne, Victoria, Australia

Now
55 °F

Partly sunny.


Feels Like: 52 °F
Forecast: 47 / 53 °F
Wind: 13 mph from Southwest

Location: Melbourne Airport

Current Time: Sep 16, 2014 at 11:01:10 AM

Latest Report: Sep 16, 2014 at 10:00 AM


Visibility: N/A

Pressure: 29.83 "Hg

Humidity: 82%

Dew point: 50 °F

Location of MelbourneLocation

Historic Weather in Melbourne — Graph

°F

Melbourne temperature yesterday

Maximum temperature yesterday: 64 °F (at 4:00 PM)
Minimum temperature yesterday: 45 °F (at 3:30 AM)
Average temperature yesterday: 54 °F

Past Weeks' High & Low Weather Summary

 TemperatureHumidityPressure
High68 °F (Sep 8, 1:30 PM)100% (Sep 4, 12:00 AM)30.45 "Hg (Sep 4, 12:00 AM)
Low36 °F (Sep 4, 2:30 AM)32% (Sep 8, 8:00 PM)29.59 "Hg (Sep 9, 2:00 PM)
Average52 °F74%30.09 "Hg
* Reported Sep 1 9:00 AM — Sep 16 9:00 AM, Melbourne, Weather by CustomWeather, © 2014

Note: Actual official high and low records may vary slightly from our data, if they occured in-between our weather recording intervals... More about our weather records

Advertising

Melbourne weather history for previous 24 hours

 ConditionsComfort  
Time TempWeatherWind HumidityBarometerVisibility
9:00 AM
Sep 16
55 °FPartly sunny.14 mph82%29.83 "HgN/A
8:30 AM54 °FPartly sunny.10 mph94%29.83 "Hg6 mi
8:00 AM54 °FBroken clouds.7 mph88%29.80 "HgN/A
7:30 AM54 °FDrizzle. Partly sunny.9 mph88%29.80 "Hg5 mi
7:00 AM54 °FPartly sunny.12 mph88%29.80 "Hg5 mi
6:30 AM52 °FPartly sunny.13 mph94%29.77 "HgN/A
6:00 AM52 °FPartly sunny.13 mph94%29.77 "HgN/A
5:30 AM52 °FPartly sunny.13 mph94%29.77 "HgN/A
5:00 AM52 °FPassing clouds.13 mph94%29.74 "HgN/A
4:00 AM52 °FPassing clouds.12 mph94%29.74 "HgN/A
3:00 AM52 °FPassing clouds.9 mph94%29.74 "HgN/A
2:30 AM52 °FPassing clouds.10 mph94%29.74 "Hg6 mi
2:00 AM52 °FLow clouds.12 mph94%29.74 "Hg5 mi
1:00 AM52 °FLow clouds.12 mph100%29.77 "Hg4 mi
12:00 AM50 °FPartly cloudy.9 mph94%29.77 "HgN/A
11:30 PM
Sep 15
50 °FClear.9 mph100%29.77 "Hg10 mi
11:00 PM50 °FClear.9 mph94%29.77 "Hg10 mi
10:30 PM50 °FClear.10 mph94%29.80 "Hg10 mi
10:00 PM50 °FClear.8 mph94%29.80 "Hg10 mi
9:30 PM52 °FClear.8 mph88%29.80 "Hg10 mi
9:00 PM54 °FPassing clouds.5 mph88%29.80 "HgN/A
8:30 PM57 °FClear.3 mph77%29.80 "Hg10 mi
8:00 PM57 °FClear.7 mph77%29.80 "Hg10 mi
7:00 PM57 °FClear.7 mph82%29.80 "Hg10 mi
6:00 PM61 °FClear.6 mph68%29.80 "Hg10 mi
5:30 PM63 °FPassing clouds.9 mph59%29.80 "HgN/A
5:00 PM64 °FBroken clouds.9 mph52%29.80 "HgN/A
4:30 PM64 °FSunny.12 mph52%29.80 "Hg10 mi
4:00 PM64 °FSunny.10 mph52%29.80 "Hg10 mi
3:00 PM61 °FSunny.5 mph68%29.83 "Hg10 mi
2:30 PM61 °FSunny.8 mph68%29.86 "Hg10 mi
2:00 PM63 °FSunny.9 mph59%29.86 "Hg10 mi
1:30 PM63 °FSunny.8 mph59%29.86 "Hg10 mi
1:00 PM61 °FSunny.9 mph63%29.89 "Hg10 mi
12:00 PM61 °FSunny.8 mph68%29.92 "Hg10 mi
11:30 AM59 °FBroken clouds.8 mph72%29.92 "HgN/A
11:00 AM57 °FBroken clouds.6 mph77%29.95 "HgN/A
Weather by CustomWeather, © 2014

See weather overviewHow to use our weather pages